Home > Weather > Iqaluit > Past weeks

Flag for Canada Past Weather in Iqaluit, Nunavut, Canada — Yesterday and Last 2 Weeks

Now
46 °F

Passing clouds.


Feels Like: 41 °F
Forecast: N/A
Wind: 12 mph from Southeast

Location: Iqaluit

Current Time: Jul 28, 2016 at 6:32:30 PM

Latest Report: Jul 28, 2016 at 6:00 PM


Visibility: 30 mi

Pressure: 30.19 "Hg

Humidity: 82%

Dew Point: 41 °F

Location of IqaluitLocation

Past Weather in Iqaluit — Graph

°F

Iqaluit Temperature Yesterday

Maximum temperature yesterday: 55 °F (at 3:00 PM)
Minimum temperature yesterday: 37 °F (at 3:00 AM)
Average temperature yesterday: 47 °F

High & Low Weather Summary for the Past Weeks

 TemperatureHumidityPressure
High55 °F (Jul 27, 3:00 PM)100% (Jul 13, 5:00 PM)30.22 "Hg (Jul 13, 5:00 PM)
Low34 °F (Jul 13, 11:00 PM)62% (Jul 18, 7:00 PM)29.15 "Hg (Jul 16, 7:00 AM)
Average42 °F88%29.76 "Hg
* Reported Jul 13 5:00 PM — Jul 28 5:00 PM, Iqaluit, Weather by CustomWeather, © 2016

Note: Actual official high and low records may vary slightly from our data, if they occured in-between our weather recording intervals... More about our weather records

Advertising

Iqaluit Weather History for the Previous 24 Hours

Scroll right to see more
 ConditionsComfort  
Time TempWeatherWind HumidityBarometerVisibility
5:00 PM
Thu, Jul 28
50 °FPassing clouds.12 mph71%30.19 "Hg30 mi
4:00 PM46 °FPassing clouds.8 mph82%30.19 "Hg30 mi
3:00 PM50 °FPassing clouds.12 mph76%30.19 "Hg30 mi
2:00 PM50 °FPassing clouds.10 mph76%30.19 "Hg30 mi
1:00 PM48 °FPassing clouds.8 mph76%30.19 "Hg30 mi
12:00 PM48 °FPassing clouds.6 mph71%30.19 "Hg30 mi
11:00 AM50 °FPassing clouds.5 mph67%30.20 "Hg30 mi
10:00 AM50 °FPassing clouds.6 mph71%30.21 "Hg30 mi
9:00 AM48 °FPassing clouds.3 mph71%30.21 "Hg30 mi
8:00 AM48 °FPassing clouds.3 mph66%30.21 "Hg30 mi
7:00 AM46 °FPassing clouds.2 mph76%30.21 "Hg30 mi
6:00 AM45 °FPassing clouds.2 mph81%30.21 "Hg30 mi
5:00 AM43 °FPassing clouds.5 mph87%30.20 "Hg30 mi
4:00 AM41 °FPassing clouds.5 mph81%30.20 "Hg30 mi
3:00 AM41 °FPassing clouds.3 mph87%30.20 "Hg30 mi
2:00 AM43 °FPassing clouds.2 mph81%30.19 "Hg20 mi
1:00 AM43 °FPassing clouds.6 mph87%30.19 "Hg15 mi
12:00 AM45 °FPassing clouds.2 mph76%30.19 "Hg15 mi
11:00 PM
Wed, Jul 27
46 °FPassing clouds.5 mph71%30.19 "Hg15 mi
10:00 PM48 °FScattered clouds.5 mph76%30.18 "Hg30 mi
9:00 PM50 °FPartly sunny.No wind82%30.18 "Hg30 mi
8:00 PM52 °FPartly sunny.2 mph67%30.17 "Hg30 mi
7:00 PM52 °FPartly sunny.3 mph67%30.17 "Hg30 mi
6:00 PM52 °FPartly sunny.3 mph67%30.17 "Hg30 mi
Weather by CustomWeather, © 2016

See weather overviewHow to use our weather pages